| time (UTC) | temp F | wind direction | speed MPH | gust MPH | rain 1hr in | rain 24hr in | rain mn in | humidity % | barometer mb |
| 20260905141052 | 71 | 39 | 2.0 | 3.0 | 0.00 | 0.00 | 0.00 | 85 | 1016.7 |
| 20260905140548 | 71 | 50 | 0.0 | 3.0 | 0.00 | 0.00 | 0.00 | 85 | 1016.5 |
| 20260905140046 | 71 | 54 | 0.0 | 3.0 | 0.00 | 0.00 | 0.00 | 85 | 1016.4 |
| 20260905135542 | 70 | 315 | 2.0 | 3.0 | 0.00 | 0.00 | 0.00 | 84 | 1016.5 |
| 20260905135042 | 70 | 323 | 3.0 | 4.0 | 0.00 | 0.00 | 0.00 | 84 | 1016.4 |
| 20260905134537 | 70 | 66 | 0.0 | 3.0 | 0.00 | 0.00 | 0.00 | 87 | 1016.4 |
| 20260905134035 | 69 | 38 | 0.0 | 3.0 | 0.00 | 0.00 | 0.00 | 88 | 1016.3 |
| 20260905133531 | 69 | 328 | 2.0 | 5.0 | 0.00 | 0.00 | 0.00 | 88 | 1016.2 |
| 20260905133031 | 69 | 44 | 0.0 | 5.0 | 0.00 | 0.00 | 0.00 | 88 | 1016.4 |
| 20260905132531 | 68 | 61 | 1.0 | 4.0 | 0.00 | 0.00 | 0.00 | 88 | 1016.3 |
| 20260905132026 | 68 | 53 | 3.0 | 3.0 | 0.00 | 0.00 | 0.00 | 89 | 1016.6 |
| 20260905131521 | 68 | 73 | 0.0 | 4.0 | 0.00 | 0.00 | 0.00 | 90 | 1016.6 |
| 20260905131016 | 68 | 51 | 1.0 | 2.0 | 0.00 | 0.00 | 0.00 | 90 | 1016.6 |
| 20260905130515 | 68 | 57 | 1.0 | 2.0 | 0.00 | 0.00 | 0.00 | 91 | 1016.7 |
| 20260905130011 | 68 | 359 | 0.0 | 3.0 | 0.00 | 0.00 | 0.00 | 91 | 1016.4 |
| 20260905125505 | 68 | 6 | 2.0 | 3.0 | 0.00 | 0.00 | 0.00 | 92 | 1016.6 |
| 20260905125000 | 68 | 58 | 1.0 | 2.0 | 0.00 | 0.00 | 0.00 | 92 | 1016.2 |
| 20260905124457 | 68 | 45 | 2.0 | 3.0 | 0.00 | 0.00 | 0.00 | 93 | 1016.2 |
| 20260905123952 | 68 | 62 | 2.0 | 2.0 | 0.00 | 0.00 | 0.00 | 93 | 1016.4 |
| 20260905123449 | 68 | 48 | 1.0 | 2.0 | 0.00 | 0.00 | 0.00 | 93 | 1016.2 |
| 20260905122948 | 67 | 60 | 1.0 | 3.0 | 0.00 | 0.00 | 0.00 | 94 | 1016.3 |
| 20260905122443 | 67 | 52 | 0.0 | 3.0 | 0.00 | 0.00 | 0.00 | 94 | 1016.2 |
| 20260905121938 | 67 | 64 | 1.0 | 4.0 | 0.00 | 0.00 | 0.00 | 94 | 1016.1 |
| 20260905121434 | 67 | 65 | 2.0 | 4.0 | 0.00 | 0.00 | 0.00 | 94 | 1016.2 |
| 20260905120933 | 67 | 17 | 2.0 | 3.0 | 0.00 | 0.00 | 0.00 | 94 | 1016.2 |
| 20260905120427 | 67 | 31 | 1.0 | 3.0 | 0.00 | 0.00 | 0.00 | 94 | 1016.2 |
| 20260905115923 | 67 | 53 | 0.0 | 3.0 | 0.00 | 0.00 | 0.00 | 95 | 1016.2 |
| 20260905115421 | 67 | 22 | 1.0 | 2.0 | 0.00 | 0.00 | 0.00 | 95 | 1016.2 |
| 20260905114917 | 67 | 80 | 1.0 | 2.0 | 0.00 | 0.00 | 0.00 | 95 | 1016.1 |
| 20260905114416 | 67 | 357 | 0.0 | 2.0 | 0.00 | 0.00 | 0.00 | 95 | 1016.1 |
| 20260905113910 | 67 | 42 | 1.0 | 1.0 | 0.00 | 0.00 | 0.00 | 95 | 1016.1 |
| 20260905113405 | 67 | 7 | 0.0 | 2.0 | 0.00 | 0.00 | 0.00 | 95 | 1016.0 |
| 20260905112901 | 67 | 60 | 2.0 | 3.0 | 0.00 | 0.00 | 0.00 | 95 | 1015.8 |
| 20260905112356 | 67 | 58 | 1.0 | 3.0 | 0.00 | 0.00 | 0.00 | 95 | 1015.9 |
| 20260905111851 | 67 | 67 | 1.0 | 3.0 | 0.00 | 0.00 | 0.00 | 95 | 1016.0 |
| 20260905111345 | 67 | 291 | 1.0 | 2.0 | 0.00 | 0.00 | 0.00 | 95 | 1015.9 |
| 20260905110844 | 67 | 59 | 0.0 | 3.0 | 0.00 | 0.00 | 0.00 | 96 | 1015.5 |
| 20260905110338 | 67 | 54 | 2.0 | 3.0 | 0.00 | 0.00 | 0.00 | 96 | 1015.7 |
| 20260905105834 | 67 | 333 | 0.0 | 2.0 | 0.00 | 0.00 | 0.00 | 96 | 1015.5 |
| 20260905105333 | 67 | 354 | 1.0 | 2.0 | 0.00 | 0.00 | 0.00 | 96 | 1015.5 |
| 20260905104827 | 67 | 294 | 1.0 | 3.0 | 0.00 | 0.00 | 0.00 | 96 | 1015.5 |
| 20260905104324 | 67 | 341 | 0.0 | 2.0 | 0.00 | 0.00 | 0.00 | 96 | 1015.4 |
| 20260905103823 | 67 | 60 | 0.0 | 2.0 | 0.00 | 0.00 | 0.00 | 96 | 1015.5 |
| 20260905103319 | 67 | 67 | 2.0 | 2.0 | 0.00 | 0.00 | 0.00 | 96 | 1015.7 |
| 20260905102814 | 67 | 348 | 1.0 | 1.0 | 0.00 | 0.00 | 0.00 | 96 | 1015.8 |
| 20260905102311 | 67 | 123 | 0.0 | 2.0 | 0.00 | 0.00 | 0.00 | 97 | 1015.7 |
| 20260905101811 | 67 | 27 | 1.0 | 2.0 | 0.00 | 0.00 | 0.00 | 97 | 1015.5 |
| 20260905101309 | 67 | 339 | 0.0 | 2.0 | 0.00 | 0.00 | 0.00 | 97 | 1015.5 |
| 20260905100803 | 67 | 113 | 0.0 | 3.0 | 0.00 | 0.00 | 0.00 | 97 | 1016.0 |
| 20260905100300 | 67 | 82 | 2.0 | 3.0 | 0.00 | 0.00 | 0.00 | 97 | 1015.8 |
| 20260905095759 | 67 | 51 | 2.0 | 3.0 | 0.00 | 0.00 | 0.00 | 97 | 1015.6 |
| 20260905095253 | 67 | 33 | 2.0 | 3.0 | 0.00 | 0.00 | 0.00 | 97 | 1015.7 |
| 20260905094748 | 67 | 59 | 1.0 | 2.0 | 0.00 | 0.00 | 0.00 | 97 | 1015.8 |
| 20260905094244 | 67 | 62 | 0.0 | 3.0 | 0.00 | 0.00 | 0.00 | 97 | 1015.7 |
| 20260905093742 | 67 | 17 | 1.0 | 1.0 | 0.00 | 0.00 | 0.00 | 97 | 1015.7 |
| 20260905093238 | 67 | 230 | 0.0 | 2.0 | 0.00 | 0.00 | 0.00 | 97 | 1015.5 |
| 20260905092734 | 67 | 6 | 1.0 | 3.0 | 0.00 | 0.00 | 0.00 | 97 | 1015.6 |
| 20260905092229 | 67 | 48 | 0.0 | 2.0 | 0.00 | 0.00 | 0.00 | 98 | 1015.6 |
| 20260905091729 | 67 | 47 | 2.0 | 3.0 | 0.00 | 0.00 | 0.00 | 98 | 1015.7 |
| 20260905091224 | 67 | 59 | 1.0 | 2.0 | 0.00 | 0.00 | 0.00 | 98 | 1015.7 |
| 20260905090723 | 67 | 84 | 1.0 | 2.0 | 0.00 | 0.00 | 0.00 | 98 | 1015.7 |
| 20260905090219 | 67 | 62 | 0.0 | 1.0 | 0.00 | 0.00 | 0.00 | 98 | 1015.9 |
| 20260905085718 | 67 | 343 | 0.0 | 1.0 | 0.00 | 0.00 | 0.00 | 98 | 1015.5 |
| 20260905085212 | 67 | 55 | 0.0 | 1.0 | 0.00 | 0.00 | 0.00 | 98 | 1015.6 |
| 20260905084707 | 67 | 33 | 2.0 | 2.0 | 0.00 | 0.00 | 0.00 | 98 | 1015.5 |
| 20260905084207 | 67 | 37 | 0.0 | 1.0 | 0.00 | 0.00 | 0.00 | 98 | 1015.4 |
| 20260905083701 | 67 | 75 | 0.0 | 1.0 | 0.00 | 0.00 | 0.00 | 98 | 1015.2 |
| 20260905083158 | 67 | 50 | 0.0 | 1.0 | 0.00 | 0.00 | 0.00 | 98 | 1015.3 |
| 20260905082653 | 67 | 75 | 0.0 | 0.0 | 0.00 | 0.00 | 0.00 | 98 | 1015.6 |
| 20260905082148 | 67 | 104 | 0.0 | 1.0 | 0.00 | 0.00 | 0.00 | 98 | 1015.0 |
| 20260905081643 | 67 | 60 | 0.0 | 1.0 | 0.00 | 0.00 | 0.00 | 98 | 1015.1 |
| 20260905081138 | 67 | 76 | 0.0 | 0.0 | 0.00 | 0.00 | 0.00 | 98 | 1015.1 |
| 20260905080632 | 67 | 44 | 0.0 | 3.0 | 0.00 | 0.00 | 0.00 | 98 | 1015.2 |
| 20260905080127 | 67 | 293 | 0.0 | 1.0 | 0.00 | 0.00 | 0.00 | 98 | 1015.4 |
| 20260905075626 | 67 | 73 | 0.0 | 2.0 | 0.00 | 0.00 | 0.00 | 98 | 1015.4 |
| 20260905075126 | 67 | 38 | 1.0 | 5.0 | 0.00 | 0.00 | 0.00 | 98 | 1015.3 |
| 20260905074625 | 68 | 29 | 1.0 | 2.0 | 0.00 | 0.00 | 0.00 | 98 | 1015.3 |
| 20260905074121 | 68 | 34 | 2.0 | 3.0 | 0.00 | 0.00 | 0.00 | 99 | 1015.4 |
| 20260905073616 | 68 | 11 | 0.0 | 1.0 | 0.00 | 0.00 | 0.00 | 99 | 1015.6 |
| 20260905073112 | 68 | 242 | 0.0 | 1.0 | 0.00 | 0.00 | 0.00 | 99 | 1015.6 |
| 20260905072611 | 68 | 79 | 1.0 | 2.0 | 0.00 | 0.00 | 0.00 | 99 | 1015.6 |
| 20260905072106 | 68 | 117 | 0.0 | 1.0 | 0.00 | 0.00 | 0.00 | 99 | 1015.6 |
| 20260905071603 | 68 | 62 | 0.0 | 2.0 | 0.00 | 0.00 | 0.00 | 99 | 1015.3 |
| 20260905071103 | 68 | 49 | 1.0 | 2.0 | 0.00 | 0.00 | 0.00 | 99 | 1015.3 |
| 20260905070558 | 68 | 0 | 0.0 | 2.0 | 0.00 | 0.00 | 0.00 | 99 | 1015.1 |
| 20260905070054 | 68 | 57 | 2.0 | 2.0 | 0.00 | 0.00 | 0.00 | 99 | 1015.0 |
| 20260905065552 | 68 | 63 | 1.0 | 3.0 | 0.00 | 0.00 | 0.00 | 99 | 1015.2 |
| 20260905065047 | 68 | 70 | 2.0 | 3.0 | 0.00 | 0.00 | 0.00 | 99 | 1015.0 |
| 20260905064542 | 68 | 41 | 2.0 | 2.0 | 0.00 | 0.00 | 0.00 | 99 | 1014.9 |
| 20260905064037 | 68 | 19 | 1.0 | 3.0 | 0.00 | 0.00 | 0.00 | 99 | 1014.8 |
| 20260905063536 | 68 | 66 | 1.0 | 1.0 | 0.00 | 0.00 | 0.00 | 99 | 1014.9 |
| 20260905063033 | 68 | 38 | 0.0 | 1.0 | 0.00 | 0.00 | 0.00 | 99 | 1014.9 |
| 20260905062532 | 68 | 7 | 0.0 | 1.0 | 0.00 | 0.00 | 0.00 | 99 | 1015.0 |
| 20260905062027 | 68 | 117 | 0.0 | 1.0 | 0.00 | 0.00 | 0.00 | 99 | 1015.1 |
| 20260905061523 | 68 | 6 | 0.0 | 1.0 | 0.00 | 0.00 | 0.00 | 99 | 1015.1 |
| 20260905061021 | 68 | 50 | 0.0 | 1.0 | 0.00 | 0.00 | 0.00 | 99 | 1015.2 |
| 20260905060518 | 68 | 32 | 0.0 | 1.0 | 0.00 | 0.00 | 0.00 | 99 | 1015.3 |
| 20260905060013 | 69 | 75 | 0.0 | 1.0 | 0.00 | 0.00 | 0.00 | 99 | 1015.3 |
| 20260905055511 | 69 | 349 | 0.0 | 2.0 | 0.00 | 0.00 | 0.00 | 99 | 1015.3 |
| 20260905055006 | 69 | 44 | 0.0 | 2.0 | 0.00 | 0.00 | 0.00 | 99 | 1015.4 |
| 20260905054502 | 69 | 75 | 0.0 | 2.0 | 0.00 | 0.00 | 0.00 | 99 | 1015.4 |
| 20260905053957 | 69 | 51 | 1.0 | 2.0 | 0.00 | 0.00 | 0.00 | 99 | 1015.6 |
| 20260905053451 | 69 | 45 | 0.0 | 1.0 | 0.00 | 0.00 | 0.00 | 99 | 1015.7 |
| 20260905052948 | 69 | 62 | 0.0 | 0.0 | 0.00 | 0.00 | 0.00 | 99 | 1015.6 |
| 20260905052447 | 69 | 322 | 0.0 | 1.0 | 0.00 | 0.00 | 0.00 | 99 | 1015.6 |
| 20260905051946 | 69 | 37 | 0.0 | 3.0 | 0.00 | 0.00 | 0.00 | 99 | 1015.4 |
| 20260905051442 | 70 | 44 | 2.0 | 2.0 | 0.00 | 0.00 | 0.00 | 99 | 1015.5 |
| 20260905050939 | 70 | 25 | 0.0 | 2.0 | 0.00 | 0.00 | 0.00 | 99 | 1015.0 |
| 20260905050435 | 70 | 56 | 1.0 | 2.0 | 0.00 | 0.00 | 0.00 | 99 | 1015.5 |
| 20260905045930 | 70 | 43 | 0.0 | 1.0 | 0.00 | 0.00 | 0.00 | 99 | 1015.5 |
| 20260905045420 | 70 | 343 | 0.0 | 1.0 | 0.00 | 0.00 | 0.00 | 99 | 1015.5 |
| 20260905044915 | 70 | 75 | 0.0 | 3.0 | 0.00 | 0.00 | 0.00 | 99 | 1015.5 |
| 20260905044410 | 70 | 7 | 0.0 | 2.0 | 0.00 | 0.00 | 0.00 | 99 | 1015.6 |
| 20260905043909 | 70 | 352 | 1.0 | 3.0 | 0.00 | 0.00 | 0.00 | 99 | 1015.4 |
| 20260905043404 | 71 | 55 | 0.0 | 2.0 | 0.00 | 0.00 | 0.00 | 99 | 1015.5 |
| 20260905042904 | 71 | 345 | 2.0 | 3.0 | 0.00 | 0.00 | 0.00 | 99 | 1015.3 |
| 20260905042359 | 71 | 344 | 1.0 | 3.0 | 0.00 | 0.00 | 0.00 | 99 | 1015.3 |
| 20260905041853 | 71 | 17 | 0.0 | 2.0 | 0.00 | 0.00 | 0.00 | 99 | 1015.3 |
| 20260905041349 | 71 | 298 | 0.0 | 3.0 | 0.00 | 0.00 | 0.00 | 99 | 1015.5 |
| 20260905040844 | 71 | 347 | 1.0 | 3.0 | 0.00 | 0.00 | 0.00 | 99 | 1015.6 |
| 20260905040343 | 71 | 267 | 0.0 | 2.0 | 0.00 | 0.00 | 0.00 | 99 | 1015.4 |
| 20260905035842 | 71 | 82 | 0.0 | 2.0 | 0.00 | 0.32 | 0.32 | 99 | 1015.7 |
| 20260905035338 | 71 | 75 | 0.0 | 2.0 | 0.00 | 0.32 | 0.32 | 99 | 1015.5 |
| 20260905034834 | 71 | 62 | 0.0 | 1.0 | 0.00 | 0.32 | 0.32 | 99 | 1015.8 |
| 20260905034330 | 71 | 43 | 1.0 | 2.0 | 0.00 | 0.32 | 0.32 | 99 | 1015.7 |
| 20260905033828 | 71 | 62 | 0.0 | 3.0 | 0.00 | 0.32 | 0.32 | 99 | 1015.7 |
| 20260905033324 | 71 | 119 | 0.0 | 2.0 | 0.00 | 0.32 | 0.32 | 98 | 1015.8 |
| 20260905032823 | 71 | 15 | 2.0 | 2.0 | 0.00 | 0.32 | 0.32 | 98 | 1015.9 |
| 20260905032319 | 71 | 27 | 1.0 | 2.0 | 0.00 | 0.32 | 0.32 | 98 | 1015.7 |
| 20260905031814 | 71 | 62 | 0.0 | 2.0 | 0.00 | 0.32 | 0.32 | 98 | 1015.9 |
| 20260905031310 | 71 | 69 | 0.0 | 1.0 | 0.00 | 0.32 | 0.32 | 98 | 1016.0 |
| 20260905030805 | 71 | 69 | 0.0 | 1.0 | 0.00 | 0.32 | 0.32 | 98 | 1016.2 |
| 20260905030300 | 72 | 142 | 0.0 | 1.0 | 0.00 | 0.32 | 0.32 | 98 | 1016.4 |
| 20260905025800 | 72 | 89 | 0.0 | 2.0 | 0.00 | 0.32 | 0.32 | 98 | 1016.3 |
| 20260905025255 | 72 | 89 | 0.0 | 2.0 | 0.00 | 0.32 | 0.32 | 98 | 1016.4 |
| 20260905024751 | 72 | 62 | 0.0 | 1.0 | 0.00 | 0.32 | 0.32 | 98 | 1016.3 |
| 20260905024246 | 72 | 76 | 0.0 | 1.0 | 0.00 | 0.32 | 0.32 | 98 | 1016.3 |
| 20260905023741 | 72 | 89 | 0.0 | 1.0 | 0.00 | 0.32 | 0.32 | 98 | 1016.4 |
| 20260905023236 | 72 | 78 | 1.0 | 2.0 | 0.00 | 0.32 | 0.32 | 98 | 1016.4 |
| 20260905022735 | 72 | 28 | 0.0 | 2.0 | 0.00 | 0.32 | 0.32 | 98 | 1016.2 |
| 20260905022231 | 72 | 37 | 0.0 | 1.0 | 0.00 | 0.32 | 0.32 | 98 | 1016.0 |
| 20260905021725 | 72 | 62 | 0.0 | 1.0 | 0.00 | 0.32 | 0.32 | 98 | 1016.1 |
| 20260905021220 | 72 | 60 | 0.0 | 1.0 | 0.00 | 0.32 | 0.32 | 98 | 1016.3 |
| 20260905020715 | 72 | 89 | 0.0 | 0.0 | 0.00 | 0.32 | 0.32 | 98 | 1016.2 |
| 20260905020210 | 72 | 124 | 0.0 | 1.0 | 0.00 | 0.32 | 0.32 | 98 | 1016.0 |
| 20260905015709 | 72 | 89 | 0.0 | 2.0 | 0.00 | 0.32 | 0.32 | 98 | 1016.2 |
| 20260905015209 | 72 | 38 | 1.0 | 2.0 | 0.00 | 0.32 | 0.32 | 98 | 1016.1 |
| 20260905014707 | 72 | 129 | 0.0 | 0.0 | 0.00 | 0.32 | 0.32 | 97 | 1016.0 |
| 20260905014203 | 72 | 89 | 0.0 | 0.0 | 0.00 | 0.32 | 0.32 | 97 | 1016.1 |
| 20260905013659 | 72 | 113 | 0.0 | 1.0 | 0.00 | 0.32 | 0.32 | 97 | 1016.0 |
| 20260905013154 | 72 | 122 | 0.0 | 1.0 | 0.00 | 0.32 | 0.32 | 97 | 1016.2 |
| 20260905012650 | 72 | 124 | 0.0 | 1.0 | 0.00 | 0.32 | 0.32 | 97 | 1016.0 |
| 20260905012146 | 72 | 124 | 0.0 | 0.0 | 0.00 | 0.32 | 0.32 | 97 | 1016.1 |
| 20260905011642 | 72 | 124 | 0.0 | 1.0 | 0.00 | 0.32 | 0.32 | 97 | 1016.1 |
| 20260905011132 | 72 | 119 | 0.0 | 1.0 | 0.00 | 0.32 | 0.32 | 97 | 1016.0 |
| 20260905010626 | 72 | 104 | 0.0 | 1.0 | 0.00 | 0.32 | 0.32 | 97 | 1016.1 |
| 20260905010123 | 72 | 75 | 0.0 | 1.0 | 0.00 | 0.32 | 0.32 | 97 | 1016.1 |
| 20260905005618 | 72 | 117 | 0.0 | 1.0 | 0.00 | 0.32 | 0.32 | 97 | 1016.0 |
| 20260905005114 | 72 | 142 | 0.0 | 0.0 | 0.00 | 0.32 | 0.32 | 96 | 1015.9 |
| 20260905004608 | 72 | 142 | 0.0 | 0.0 | 0.00 | 0.32 | 0.32 | 96 | 1015.9 |
| 20260905004103 | 72 | 142 | 0.0 | 0.0 | 0.00 | 0.32 | 0.32 | 96 | 1015.8 |
| 20260905003559 | 72 | 142 | 0.0 | 0.0 | 0.00 | 0.32 | 0.32 | 96 | 1015.9 |
| 20260905003054 | 72 | 142 | 0.0 | 1.0 | 0.00 | 0.32 | 0.32 | 95 | 1015.7 |
| 20260905002550 | 73 | 103 | 0.0 | 0.0 | 0.00 | 0.32 | 0.32 | 95 | 1015.8 |
| 20260905002050 | 73 | 103 | 0.0 | 1.0 | 0.00 | 0.32 | 0.32 | 95 | 1015.7 |
| 20260905001545 | 73 | 129 | 0.0 | 1.0 | 0.00 | 0.32 | 0.32 | 95 | 1015.6 |
| 20260905001038 | 73 | 117 | 0.0 | 2.0 | 0.00 | 0.32 | 0.32 | 94 | 1015.9 |
| 20260905000534 | 73 | 103 | 0.0 | 1.0 | 0.00 | 0.32 | 0.32 | 94 | 1015.8 |
| 20260905000030 | 74 | 104 | 0.0 | 1.0 | 0.00 | 0.32 | 0.32 | 93 | 1015.7 |
| 20260904235525 | 74 | 104 | 0.0 | 1.0 | 0.00 | 0.32 | 0.32 | 93 | 1015.7 |
| 20260904235025 | 74 | 117 | 0.0 | 0.0 | 0.00 | 0.32 | 0.32 | 92 | 1015.7 |
| 20260904234525 | 75 | 117 | 0.0 | 1.0 | 0.00 | 0.32 | 0.32 | 91 | 1015.6 |
| 20260904234021 | 75 | 55 | 0.0 | 1.0 | 0.00 | 0.32 | 0.32 | 91 | 1015.7 |
| 20260904233516 | 75 | 25 | 0.0 | 1.0 | 0.00 | 0.32 | 0.32 | 91 | 1015.6 |
| 20260904233012 | 75 | 117 | 0.0 | 1.0 | 0.00 | 0.32 | 0.32 | 90 | 1015.5 |
| 20260904232508 | 75 | 135 | 0.0 | 0.0 | 0.00 | 0.32 | 0.32 | 90 | 1015.5 |
| 20260904232005 | 75 | 124 | 0.0 | 1.0 | 0.00 | 0.32 | 0.32 | 90 | 1015.3 |
| 20260904231500 | 76 | 68 | 0.0 | 1.0 | 0.00 | 0.32 | 0.32 | 89 | 1015.5 |
| 20260904230954 | 76 | 329 | 0.0 | 1.0 | 0.00 | 0.32 | 0.32 | 88 | 1015.3 |
| 20260904230453 | 76 | 37 | 0.0 | 2.0 | 0.00 | 0.32 | 0.32 | 88 | 1015.3 |
| 20260904225949 | 76 | 41 | 0.0 | 2.0 | 0.00 | 0.32 | 0.32 | 88 | 1015.4 |
| 20260904225446 | 76 | 309 | 0.0 | 1.0 | 0.00 | 0.32 | 0.32 | 88 | 1015.2 |
| 20260904224940 | 76 | 6 | 0.0 | 2.0 | 0.00 | 0.32 | 0.32 | 88 | 1015.1 |
| 20260904224437 | 76 | 134 | 0.0 | 2.0 | 0.00 | 0.32 | 0.32 | 88 | 1015.1 |
| 20260904223936 | 76 | 22 | 0.0 | 1.0 | 0.00 | 0.32 | 0.32 | 87 | 1015.1 |
| 20260904223435 | 77 | 7 | 1.0 | 5.0 | 0.00 | 0.32 | 0.32 | 87 | 1014.9 |
| 20260904222931 | 77 | 154 | 0.0 | 3.0 | 0.00 | 0.32 | 0.32 | 86 | 1014.9 |
| 20260904222427 | 77 | 316 | 2.0 | 3.0 | 0.00 | 0.32 | 0.32 | 85 | 1015.1 |
| 20260904221926 | 77 | 13 | 0.0 | 2.0 | 0.00 | 0.32 | 0.32 | 87 | 1014.9 |
| 20260904221421 | 77 | 322 | 2.0 | 4.0 | 0.00 | 0.32 | 0.32 | 86 | 1014.8 |
| 20260904220917 | 76 | 29 | 0.0 | 4.0 | 0.00 | 0.32 | 0.32 | 86 | 1014.9 |
| 20260904220416 | 77 | 31 | 2.0 | 3.0 | 0.00 | 0.32 | 0.32 | 87 | 1014.7 |
| 20260904215911 | 76 | 19 | 1.0 | 3.0 | 0.00 | 0.32 | 0.32 | 87 | 1014.9 |
| 20260904215406 | 76 | 352 | 2.0 | 3.0 | 0.00 | 0.32 | 0.32 | 87 | 1015.0 |
| 20260904214902 | 76 | 18 | 0.0 | 4.0 | 0.00 | 0.32 | 0.32 | 87 | 1014.7 |
| 20260904214358 | 76 | 47 | 1.0 | 3.0 | 0.00 | 0.32 | 0.32 | 86 | 1014.8 |
| 20260904213856 | 77 | 24 | 4.0 | 4.0 | 0.00 | 0.32 | 0.32 | 85 | 1014.9 |
| 20260904213351 | 77 | 45 | 0.0 | 3.0 | 0.00 | 0.32 | 0.32 | 85 | 1015.0 |
| 20260904212848 | 77 | 354 | 1.0 | 4.0 | 0.00 | 0.32 | 0.32 | 85 | 1014.9 |
| 20260904212347 | 77 | 289 | 0.0 | 4.0 | 0.00 | 0.32 | 0.32 | 85 | 1014.7 |
| 20260904211843 | 78 | 156 | 3.0 | 3.0 | 0.00 | 0.32 | 0.32 | 84 | 1014.8 |
| 20260904211337 | 78 | 28 | 2.0 | 3.0 | 0.00 | 0.32 | 0.32 | 83 | 1014.7 |
| 20260904210832 | 79 | 12 | 0.0 | 4.0 | 0.00 | 0.32 | 0.32 | 85 | 1014.6 |
| 20260904210326 | 78 | 103 | 2.0 | 3.0 | 0.00 | 0.32 | 0.32 | 84 | 1014.5 |
| 20260904205823 | 79 | 180 | 0.0 | 3.0 | 0.00 | 0.32 | 0.32 | 84 | 1014.4 |
| 20260904205318 | 78 | 257 | 0.0 | 3.0 | 0.00 | 0.32 | 0.32 | 84 | 1014.6 |
| 20260904204815 | 78 | 124 | 0.0 | 3.0 | 0.00 | 0.32 | 0.32 | 87 | 1014.6 |
| 20260904204310 | 78 | 12 | 2.0 | 4.0 | 0.00 | 0.32 | 0.32 | 86 | 1014.4 |
| 20260904203807 | 78 | 241 | 2.0 | 3.0 | 0.00 | 0.32 | 0.32 | 85 | 1014.6 |
| 20260904203302 | 78 | 35 | 1.0 | 4.0 | 0.00 | 0.32 | 0.32 | 85 | 1014.6 |
| 20260904202758 | 78 | 235 | 0.0 | 5.0 | 0.00 | 0.32 | 0.32 | 85 | 1014.6 |
| 20260904202254 | 79 | 132 | 0.0 | 4.0 | 0.00 | 0.32 | 0.32 | 83 | 1014.7 |
| 20260904201744 | 79 | 282 | 0.0 | 3.0 | 0.00 | 0.32 | 0.32 | 85 | 1014.7 |
| 20260904201243 | 79 | 214 | 1.0 | 3.0 | 0.00 | 0.32 | 0.32 | 84 | 1014.6 |
| 20260904200738 | 78 | 180 | 0.0 | 4.0 | 0.00 | 0.32 | 0.32 | 85 | 1014.5 |
| 20260904200233 | 79 | 118 | 0.0 | 2.0 | 0.00 | 0.32 | 0.32 | 84 | 1014.6 |
| 20260904195732 | 78 | 227 | 0.0 | 2.0 | 0.00 | 0.32 | 0.32 | 85 | 1014.8 |
| 20260904195231 | 78 | 164 | 0.0 | 2.0 | 0.00 | 0.32 | 0.32 | 86 | 1014.7 |
| 20260904194726 | 78 | 189 | 2.0 | 2.0 | 0.00 | 0.32 | 0.32 | 85 | 1014.8 |
| 20260904194225 | 77 | 167 | 0.0 | 2.0 | 0.00 | 0.32 | 0.32 | 87 | 1014.8 |
| 20260904193721 | 77 | 30 | 2.0 | 2.0 | 0.00 | 0.32 | 0.32 | 88 | 1015.0 |
| 20260904193217 | 76 | 303 | 0.0 | 4.0 | 0.00 | 0.32 | 0.32 | 88 | 1015.2 |
| 20260904192717 | 77 | 165 | 2.0 | 3.0 | 0.00 | 0.32 | 0.32 | 90 | 1015.2 |
| 20260904192212 | 76 | 317 | 0.0 | 2.0 | 0.00 | 0.32 | 0.32 | 91 | 1015.2 |
| 20260904191709 | 75 | 225 | 1.0 | 4.0 | 0.00 | 0.32 | 0.32 | 92 | 1015.2 |
| 20260904191205 | 75 | 317 | 0.0 | 3.0 | 0.00 | 0.32 | 0.32 | 92 | 1015.3 |
| 20260904190701 | 75 | 305 | 2.0 | 2.0 | 0.00 | 0.32 | 0.32 | 93 | 1015.2 |
| 20260904190157 | 75 | 38 | 0.0 | 1.0 | 0.00 | 0.32 | 0.32 | 95 | 1015.4 |
| 20260904185653 | 74 | 120 | 0.0 | 2.0 | 0.00 | 0.32 | 0.32 | 94 | 1015.4 |
| 20260904185148 | 74 | 208 | 0.0 | 2.0 | 0.00 | 0.32 | 0.32 | 93 | 1015.4 |
| 20260904184646 | 74 | 210 | 2.0 | 3.0 | 0.00 | 0.32 | 0.32 | 94 | 1015.5 |
| 20260904184142 | 74 | 214 | 1.0 | 2.0 | 0.00 | 0.32 | 0.32 | 94 | 1015.3 |
| 20260904183638 | 74 | 192 | 2.0 | 3.0 | 0.00 | 0.32 | 0.32 | 95 | 1015.4 |
| 20260904183137 | 73 | 143 | 0.0 | 3.0 | 0.00 | 0.32 | 0.32 | 96 | 1015.5 |
| 20260904182633 | 73 | 154 | 0.0 | 2.0 | 0.00 | 0.32 | 0.32 | 97 | 1015.7 |
| 20260904182128 | 73 | 143 | 0.0 | 3.0 | 0.00 | 0.32 | 0.32 | 97 | 1015.6 |
| 20260904181624 | 73 | 172 | 0.0 | 3.0 | 0.00 | 0.32 | 0.32 | 98 | 1015.7 |
| 20260904181118 | 73 | 197 | 0.0 | 2.0 | 0.00 | 0.32 | 0.32 | 98 | 1015.5 |
| 20260904180613 | 73 | 304 | 0.0 | 1.0 | 0.00 | 0.32 | 0.32 | 99 | 1015.7 |
| 20260904180109 | 73 | 91 | 0.0 | 1.0 | 0.00 | 0.32 | 0.32 | 99 | 1015.7 |
| 20260904175608 | 73 | 173 | 0.0 | 1.0 | 0.00 | 0.32 | 0.32 | 99 | 1015.7 |
| 20260904175106 | 72 | 40 | 0.0 | 1.0 | 0.00 | 0.32 | 0.32 | 99 | 1015.7 |
| 20260904174601 | 72 | 195 | 0.0 | 2.0 | 0.00 | 0.32 | 0.32 | 99 | 1015.8 |
| 20260904174058 | 72 | 154 | 0.0 | 1.0 | 0.00 | 0.32 | 0.32 | 99 | 1015.9 |
| 20260904173557 | 72 | 202 | 1.0 | 2.0 | 0.00 | 0.32 | 0.32 | 99 | 1016.0 |
| 20260904173053 | 72 | 156 | 0.0 | 3.0 | 0.00 | 0.32 | 0.32 | 99 | 1016.0 |
| 20260904172549 | 71 | 190 | 0.0 | 3.0 | 0.00 | 0.32 | 0.32 | 99 | 1015.9 |
| 20260904172048 | 72 | 176 | 1.0 | 3.0 | 0.00 | 0.32 | 0.32 | 99 | 1016.2 |
| 20260904171543 | 71 | 263 | 0.0 | 4.0 | 0.00 | 0.32 | 0.32 | 99 | 1016.1 |
| 20260904171039 | 72 | 198 | 2.0 | 3.0 | 0.00 | 0.32 | 0.32 | 99 | 1016.1 |
| 20260904170534 | 72 | 186 | 2.0 | 3.0 | 0.00 | 0.32 | 0.32 | 99 | 1016.0 |
| 20260904170031 | 72 | 262 | 0.0 | 2.0 | 0.00 | 0.32 | 0.32 | 99 | 1016.1 |
| 20260904165529 | 72 | 198 | 1.0 | 2.0 | 0.00 | 0.32 | 0.32 | 99 | 1016.1 |
| 20260904165029 | 72 | 235 | 0.0 | 2.0 | 0.00 | 0.32 | 0.32 | 99 | 1016.0 |
| 20260904164524 | 72 | 24 | 0.0 | 1.0 | 0.00 | 0.32 | 0.32 | 99 | 1015.8 |
| 20260904164020 | 72 | 333 | 0.0 | 0.0 | 0.00 | 0.32 | 0.32 | 99 | 1015.8 |
| 20260904163519 | 72 | 141 | 1.0 | 1.0 | 0.00 | 0.32 | 0.32 | 99 | 1015.6 |
| 20260904163015 | 72 | 192 | 0.0 | 1.0 | 0.00 | 0.32 | 0.32 | 99 | 1015.9 |
| 20260904162509 | 71 | 164 | 0.0 | 1.0 | 0.00 | 0.32 | 0.32 | 99 | 1015.8 |
| 20260904162005 | 71 | 117 | 0.0 | 1.0 | 0.00 | 0.32 | 0.32 | 99 | 1016.0 |
| 20260904161459 | 71 | 142 | 0.0 | 1.0 | 0.00 | 0.32 | 0.32 | 99 | 1016.2 |
| 20260904160955 | 70 | 99 | 0.0 | 2.0 | 0.00 | 0.32 | 0.32 | 99 | 1016.1 |
| 20260904160449 | 70 | 32 | 0.0 | 2.0 | 0.00 | 0.32 | 0.32 | 99 | 1015.9 |
| 20260904155944 | 70 | 75 | 0.0 | 2.0 | 0.00 | 0.32 | 0.32 | 99 | 1016.0 |
| 20260904155439 | 70 | 62 | 0.0 | 1.0 | 0.00 | 0.32 | 0.32 | 99 | 1016.2 |
| 20260904154937 | 69 | 49 | 0.0 | 1.0 | 0.00 | 0.32 | 0.32 | 99 | 1016.7 |
| 20260904154432 | 69 | 304 | 0.0 | 1.0 | 0.00 | 0.32 | 0.32 | 99 | 1016.9 |
| 20260904153927 | 69 | 241 | 0.0 | 1.0 | 0.00 | 0.32 | 0.32 | 99 | 1016.8 |
| 20260904153422 | 69 | 177 | 0.0 | 1.0 | 0.00 | 0.32 | 0.32 | 99 | 1016.8 |
| 20260904152919 | 69 | 135 | 0.0 | 2.0 | 0.00 | 0.32 | 0.32 | 99 | 1016.8 |
| 20260904152414 | 68 | 148 | 1.0 | 3.0 | 0.00 | 0.32 | 0.32 | 99 | 1016.8 |
| 20260904151913 | 69 | 158 | 0.0 | 3.0 | 0.00 | 0.32 | 0.32 | 99 | 1017.6 |
| 20260904151408 | 69 | 176 | 2.0 | 3.0 | 0.00 | 0.32 | 0.32 | 99 | 1017.8 |
| 20260904150904 | 69 | 157 | 0.0 | 2.0 | 0.02 | 0.32 | 0.32 | 99 | 1017.7 |
| 20260904150359 | 69 | 193 | 0.0 | 2.0 | 0.02 | 0.32 | 0.32 | 99 | 1017.7 |
| 20260904145856 | 69 | 191 | 0.0 | 2.0 | 0.05 | 0.31 | 0.31 | 99 | 1017.5 |
| 20260904145353 | 68 | 13 | 0.0 | 2.0 | 0.05 | 0.31 | 0.31 | 99 | 1017.5 |
| 20260904144848 | 68 | 185 | 0.0 | 2.0 | 0.07 | 0.30 | 0.30 | 99 | 1017.6 |
| 20260904144344 | 68 | 211 | 0.0 | 3.0 | 0.02 | 0.29 | 0.29 | 99 | 1017.3 |
| 20260904143839 | 68 | 228 | 0.0 | 2.0 | 0.02 | 0.29 | 0.29 | 99 | 1017.3 |
| 20260904143336 | 68 | 220 | 1.0 | 3.0 | 0.02 | 0.29 | 0.29 | 99 | 1016.9 |
| 20260904142832 | 68 | 216 | 2.0 | 3.0 | 0.02 | 0.29 | 0.29 | 99 | 1017.0 |
| 20260904142327 | 68 | 178 | 0.0 | 2.0 | 0.02 | 0.28 | 0.28 | 99 | 1016.8 |
| 20260904141822 | 68 | 136 | 0.0 | 2.0 | 0.05 | 0.28 | 0.28 | 99 | 1016.4 |
| 20260904141317 | 68 | 141 | 0.0 | 2.0 | 0.07 | 0.28 | 0.28 | 99 | 1016.6 |